CW4952 Weather Reports


Display with metric or nautical units.
time (UTC)temp
F
wind
direction
speed
MPH
gust
MPH
rain 1hr
in
rain 24hr
in
rain mn
in
humidity
%
barometer
mb
20260506221559 88 112 4.0 7.0 0.00 0.00 0.00 61 1015.1
20260506221555 89 122 3.0 7.0 0.00 0.00 0.00 61 1015.3
20260506220101 90 126 4.0 8.0 0.00 0.00 0.00 59 1015.1
20260506220055 90 98 3.0 8.0 0.00 0.00 0.00 58 1015.2
20260506214558 93 107 3.0 6.0 0.00 0.00 0.00 56 1015.1
20260506214546 93 134 2.0 6.0 0.00 0.00 0.00 55 1015.2
20260506213057 95 128 1.0 4.0 0.00 0.00 0.00 43 1015.1
20260506213044 95 179 0.0 7.0 0.00 0.00 0.00 43 1015.3
20260506211556 95 5 1.0 7.0 0.00 0.00 0.00 42 1015.2
20260506211547 95 286 2.0 8.0 0.00 0.00 0.00 43 1015.4
20260506210054 95 199 1.0 5.0 0.00 0.00 0.00 44 1015.5
20260506204559 95 258 1.0 5.0 0.00 0.00 0.00 45 1015.5
20260506204544 95 282 1.0 5.0 0.00 0.00 0.00 44 1015.6
20260506203052 95 289 1.0 5.0 0.00 0.00 0.00 46 1015.6
20260506203040 95 289 1.0 5.0 0.00 0.00 0.00 46 1015.7
20260506201556 95 252 2.0 6.0 0.00 0.00 0.00 45 1015.8
20260506201550 95 217 1.0 6.0 0.00 0.00 0.00 45 1016.0
20260506200108 95 175 1.0 7.0 0.00 0.00 0.00 45 1016.1
20260506200047 95 173 1.0 7.0 0.00 0.00 0.00 45 1016.1
20260506194603 95 222 2.0 8.0 0.00 0.00 0.00 47 1016.4
20260506194546 95 153 2.0 9.0 0.00 0.00 0.00 46 1016.2
20260506193049 94 227 1.0 5.0 0.00 0.00 0.00 46 1016.6
20260506193044 94 236 1.0 6.0 0.00 0.00 0.00 45 1016.5
20260506191548 95 219 1.0 4.0 0.00 0.00 0.00 47 1016.7
20260506191540 95 219 0.0 3.0 0.00 0.00 0.00 46 1016.7
20260506190046 93 161 2.0 7.0 0.00 0.00 0.00 49 1016.9
20260506190043 93 148 1.0 10.0 0.00 0.00 0.00 49 1016.9
20260506184553 93 202 1.0 7.0 0.00 0.00 0.00 49 1017.0
20260506184544 93 170 1.0 7.0 0.00 0.00 0.00 50 1017.1
20260506183057 92 198 3.0 7.0 0.00 0.00 0.00 51 1017.3
20260506183039 92 198 3.0 7.0 0.00 0.00 0.00 50 1017.2
20260506181544 92 140 1.0 6.0 0.00 0.00 0.00 51 1017.3
20260506181542 92 140 1.0 5.0 0.00 0.00 0.00 52 1017.4
20260506180045 91 0 2.0 5.0 0.00 0.00 0.00 54 1017.5
20260506180037 91 237 1.0 4.0 0.00 0.00 0.00 54 1017.5
20260506174542 90 213 2.0 7.0 0.00 0.00 0.00 55 1017.6
20260506174533 90 205 2.0 7.0 0.00 0.00 0.00 55 1017.7
20260506173047 89 218 2.0 6.0 0.00 0.00 0.00 57 1018.0
20260506173030 89 218 2.0 6.0 0.00 0.00 0.00 57 1018.1
20260506171554 88 193 1.0 7.0 0.00 0.00 0.00 58 1018.1
20260506171537 88 190 2.0 7.0 0.00 0.00 0.00 58 1018.2
20260506170041 88 178 1.0 13.0 0.00 0.00 0.00 58 1018.4
20260506170026 88 178 1.0 11.0 0.00 0.00 0.00 59 1018.3
20260506164544 87 184 0.0 7.0 0.00 0.00 0.00 60 1018.5
20260506164523 87 184 1.0 6.0 0.00 0.00 0.00 61 1018.4
20260506163051 87 216 1.0 9.0 0.00 0.00 0.00 60 1018.6
20260506163021 87 216 2.0 9.0 0.00 0.00 0.00 60 1018.6
20260506161545 86 232 2.0 9.0 0.00 0.00 0.00 61 1018.8
20260506161522 86 140 1.0 7.0 0.00 0.00 0.00 61 1018.6
20260506160057 85 224 1.0 10.0 0.00 0.00 0.00 62 1018.9
20260506160027 85 221 2.0 8.0 0.00 0.00 0.00 63 1018.6
20260506154542 85 157 2.0 7.0 0.00 0.00 0.00 62 1018.9
20260506154515 85 153 2.0 7.0 0.00 0.00 0.00 63 1018.6
20260506153046 85 265 3.0 12.0 0.00 0.00 0.00 63 1019.0
20260506153012 85 253 3.0 11.0 0.00 0.00 0.00 63 1018.5
20260506151545 85 271 2.0 6.0 0.00 0.00 0.00 65 1018.9
20260506151509 85 256 2.0 6.0 0.00 0.00 0.00 65 1018.4
20260506150052 84 203 2.0 10.0 0.00 0.00 0.00 64 1018.8
20260506150014 84 153 2.0 6.0 0.00 0.00 0.00 65 1018.2
20260506144558 83 213 1.0 9.0 0.00 0.00 0.00 65 1018.7
20260506144504 83 219 1.0 8.0 0.00 0.00 0.00 65 1018.2
20260506143105 83 171 1.0 6.0 0.00 0.00 0.00 68 1018.2
20260506143039 83 171 1.0 7.0 0.00 0.00 0.00 67 1018.6
20260506141558 82 165 2.0 7.0 0.00 0.00 0.00 69 1018.3
20260506141540 82 210 2.0 10.0 0.00 0.00 0.00 68 1018.7
20260506140105 81 231 2.0 7.0 0.00 0.00 0.00 70 1018.3
20260506140048 81 231 2.0 8.0 0.00 0.00 0.00 70 1018.6
20260506134550 80 202 2.0 6.0 0.00 0.00 0.00 72 1018.3
20260506134545 80 186 1.0 8.0 0.00 0.00 0.00 72 1018.7
20260506133048 78 224 1.0 7.0 0.00 0.00 0.00 74 1018.2
20260506133044 78 224 1.0 7.0 0.00 0.00 0.00 74 1018.7
20260506131551 77 185 2.0 8.0 0.00 0.00 0.00 75 1018.5
20260506131542 77 185 2.0 7.0 0.00 0.00 0.00 75 1018.0
20260506130046 75 213 1.0 4.0 0.00 0.00 0.00 78 1018.5
20260506130039 75 212 1.0 3.0 0.00 0.00 0.00 78 1017.7
20260506124542 73 0 0.0 4.0 0.00 0.00 0.00 83 1018.3
20260506124534 73 230 0.0 4.0 0.00 0.00 0.00 84 1017.7
20260506123036 70 0 0.0 2.0 0.00 0.00 0.00 88 1018.2
20260506123029 70 328 0.0 2.0 0.00 0.00 0.00 89 1017.6
20260506121550 66 0 0.0 2.0 0.00 0.00 0.00 92 1017.9
20260506121526 66 311 0.0 2.0 0.00 0.00 0.00 92 1017.4
20260506120051 64 0 0.0 0.0 0.00 0.00 0.00 92 1017.7
20260506120022 64 360 0.0 0.0 0.00 0.00 0.00 93 1017.3
20260506114552 63 0 0.0 0.0 0.00 0.00 0.00 92 1017.6
20260506114526 63 360 0.0 0.0 0.00 0.00 0.00 92 1017.2
20260506113040 62 0 0.0 0.0 0.00 0.00 0.00 90 1017.6
20260506113019 62 360 0.0 0.0 0.00 0.00 0.00 91 1017.1
20260506111540 61 0 0.0 0.0 0.00 0.00 0.00 89 1017.5
20260506111515 61 360 0.0 0.0 0.00 0.00 0.00 90 1017.0
20260506110047 61 0 0.0 0.0 0.00 0.00 0.00 89 1017.3
20260506110012 61 360 0.0 0.0 0.00 0.00 0.00 89 1016.9
20260506104546 61 0 0.0 0.0 0.00 0.00 0.00 89 1017.2
20260506104510 61 360 0.0 0.0 0.00 0.00 0.00 89 1016.7
20260506103044 61 0 0.0 0.0 0.00 0.00 0.00 89 1017.1
20260506103014 61 360 0.0 0.0 0.00 0.00 0.00 89 1016.6
20260506101545 61 0 0.0 0.0 0.00 0.00 0.00 88 1017.1
20260506101511 61 360 0.0 0.0 0.00 0.00 0.00 89 1016.7
20260506100044 61 0 0.0 0.0 0.00 0.00 0.00 88 1017.2
20260506100007 61 360 0.0 0.0 0.00 0.00 0.00 89 1016.9
20260506094541 61 0 0.0 0.0 0.00 0.00 0.00 88 1017.3
20260506094513 62 360 0.0 0.0 0.00 0.00 0.00 88 1016.7
20260506093045 62 0 0.0 0.0 0.00 0.00 0.00 87 1017.0
20260506093007 62 360 0.0 0.0 0.00 0.00 0.00 88 1016.5
20260506091547 62 0 0.0 0.0 0.00 0.00 0.00 87 1016.8
20260506091504 62 360 0.0 0.0 0.00 0.00 0.00 88 1016.4
20260506090044 62 0 0.0 0.0 0.00 0.00 0.00 87 1016.8
20260506090007 62 360 0.0 0.0 0.00 0.00 0.00 88 1016.5
20260506084544 62 0 0.0 0.0 0.00 0.00 0.00 87 1016.7
20260506084510 62 360 0.0 0.0 0.00 0.00 0.00 88 1016.3
20260506083040 62 0 0.0 0.0 0.00 0.00 0.00 87 1016.6
20260506083002 62 360 0.0 0.0 0.00 0.00 0.00 87 1016.4
20260506081543 62 0 0.0 0.0 0.00 0.00 0.00 86 1016.8
20260506081502 62 360 0.0 0.0 0.00 0.00 0.00 87 1016.3
20260506080104 62 360 0.0 0.0 0.00 0.00 0.00 86 1016.1
20260506073105 62 360 0.0 0.0 0.00 0.00 0.00 86 1016.2
20260506073044 62 0 0.0 0.0 0.00 0.00 0.00 86 1016.4
20260506071611 62 360 0.0 0.0 0.00 0.00 0.00 85 1016.4
20260506071547 62 0 0.0 0.0 0.00 0.00 0.00 85 1016.6
20260506061551 63 360 0.0 0.0 0.00 0.00 0.00 83 1017.1
20260506061544 63 0 0.0 0.0 0.00 0.00 0.00 82 1017.3
20260506044548 65 0 0.0 0.0 0.00 0.00 0.00 78 1018.3
20260506044537 65 360 0.0 0.0 0.00 0.00 0.00 78 1017.9
20260506043043 66 0 0.0 0.0 0.00 0.00 0.00 77 1018.3
20260506043035 66 360 0.0 0.0 0.00 0.00 0.00 77 1018.0
20260506041545 66 360 0.0 0.0 0.00 0.00 0.00 76 1018.2
20260506041543 66 0 0.0 0.0 0.00 0.00 0.00 75 1018.5
20260506040041 67 0 0.0 0.0 0.00 0.00 0.00 75 1018.6
20260506040031 67 360 0.0 0.0 0.00 0.00 0.00 75 1018.1
20260506034539 67 0 0.0 0.0 0.00 0.00 0.00 74 1018.5
20260506034531 67 360 0.0 0.0 0.00 0.00 0.00 75 1017.9
20260506033045 68 0 0.0 0.0 0.00 0.00 0.00 74 1018.2
20260506033031 68 360 0.0 0.0 0.00 0.00 0.00 75 1018.1
20260506031543 69 0 0.0 0.0 0.00 0.00 0.00 73 1018.4
20260506031529 69 360 0.0 0.0 0.00 0.00 0.00 73 1017.8
20260506030057 69 0 0.0 0.0 0.00 0.00 0.00 71 1018.1
20260506030032 69 360 0.0 0.0 0.00 0.00 0.00 72 1017.6
20260506024552 70 0 0.0 0.0 0.00 0.00 0.00 70 1018.0
20260506024532 70 360 0.0 0.0 0.00 0.00 0.00 71 1017.7
20260506023040 70 0 0.0 0.0 0.00 0.00 0.00 69 1018.0
20260506023028 71 360 0.0 0.0 0.00 0.00 0.00 70 1017.3
20260506021535 71 0 0.0 1.0 0.00 0.00 0.00 69 1017.7
20260506021527 71 360 0.0 1.0 0.00 0.00 0.00 69 1017.3
20260506020045 71 0 0.0 2.0 0.00 0.00 0.00 69 1017.5
20260506020027 71 360 0.0 2.0 0.00 0.00 0.00 69 1017.2
20260506014555 72 0 0.0 3.0 0.00 0.00 0.00 69 1017.5
20260506014541 72 360 0.0 3.0 0.00 0.00 0.00 69 1017.1
20260506013043 72 0 0.0 2.0 0.00 0.00 0.00 69 1017.5
20260506013030 72 360 0.0 2.0 0.00 0.00 0.00 69 1017.1
20260506011543 72 0 0.0 2.0 0.00 0.00 0.00 68 1017.4
20260506011526 72 360 0.0 2.0 0.00 0.00 0.00 68 1017.1
20260506010049 73 360 0.0 4.0 0.00 0.00 0.00 68 1017.4
20260506010028 73 360 0.0 4.0 0.00 0.00 0.00 68 1016.9
20260506004551 73 360 0.0 3.0 0.00 0.00 0.00 67 1017.3
20260506004536 73 360 0.0 3.0 0.00 0.00 0.00 68 1017.0
20260506003045 73 360 1.0 4.0 0.00 0.00 0.00 67 1017.2
20260506003024 73 360 2.0 4.0 0.00 0.00 0.00 67 1016.8
20260506001546 74 360 0.0 6.0 0.00 0.00 0.00 66 1017.0
20260506001524 74 360 0.0 6.0 0.00 0.00 0.00 66 1016.6
20260506000043 74 360 3.0 6.0 0.00 0.00 0.00 65 1016.9
20260506000031 74 360 3.0 6.0 0.00 0.00 0.00 65 1016.6
20260505234542 75 360 1.0 6.0 0.00 0.00 0.00 63 1016.8
20260505234523 75 360 1.0 5.0 0.00 0.00 0.00 64 1016.5
20260505233041 75 0 1.0 8.0 0.00 0.00 0.00 62 1016.8
20260505233021 75 360 1.0 5.0 0.00 0.00 0.00 63 1016.4
20260505231549 76 360 3.0 8.0 0.00 0.00 0.00 61 1016.8
20260505231521 76 360 3.0 7.0 0.00 0.00 0.00 62 1016.4
20260505230049 77 360 3.0 8.0 0.00 0.00 0.00 60 1016.6
20260505230021 77 360 3.0 7.0 0.00 0.00 0.00 60 1016.5
20260505224547 78 360 3.0 9.0 0.00 0.00 0.00 57 1016.8
20260505224533 78 360 3.0 8.0 0.00 0.00 0.00 58 1016.4
20260505223044 78 360 2.0 9.0 0.00 0.00 0.00 55 1016.6
20260505223028 79 360 2.0 8.0 0.00 0.00 0.00 56 1016.5